GAOFEN-4

Last updated on Wed Jul 02 2025 00:02:30 GMT+0000 (Coordinated Universal Time)

1 41194U 15083A 25182.63908221 -.00000331 00000+0 00000+0 0 9991 2 41194 0.0296 93.4459 0000486 307.5993 214.6639 1.00272964 35017
UTC large
Height (km)
Speed (km/s)
/
Latitude / Longitude
Inclination (degrees)
Orbital Period (minutes)
Azimuth
Elevation
Range (km)
Doppler Factor

Next 0 passes for location: London (51.5072 / 0.1276)

Sorry there are no passes over London.